STARLINK-3988, 52625

Orbit data source: Space-Track

STARLINK-3988, 52625 is a payload satellite owned by SpaceX/Seattle (US) in LEO that was launched on Sat, 14 May 2022 UTC via an FALCON 9 launch vehicle from the Air Force Eastern Test Range (AFETR). Payload-class satellites include a variety of spacecraft equipped with specific instruments for various scientific and technological missions. These include communications satellites like Starlink; space stations such as the ISS; scientific satellites like the Hubble; Earth observation satellites from companies like Planet Labs, Umbra, and HawkEye 360; GPS; miniature CubeSats for education and research; and military/defense satellites.

Loading next visibility...
Identifier
52625, 2022-052AD
Orbit
LEO
Country
Flag of USUS
Related business
Manufacturer
SpaceX/Seattle
Mission
Operational Commercial Communications
Bus & Motor
STARLINK, Unknown motor
Mass
297 kg wet, ~275 kg dry
Launch date (UTC)
2022-05-14 (4 years ago)
Launch vehicle
FALCON 9
Launch site
Air Force Eastern Test Range (AFETR)
Object type
Payload
Rocket body
Debris
Shape & HBR
Box + 1 Pan, 10.1 m
Radar Cross Section
13.562 m², Large (>1 m²)

Expand to show TLE details & history
Last TLE update: 2 days ago

TLE from 2 days ago
0 STARLINK-3988
1 52625U 22052AD  26171.26627575  .00000544  00000-0  52303-4 0  9998
2 52625  53.1599 168.5223 0001308  86.8719 273.2422 15.08833952226479
Epoch: 2026-06-20T06:23Z
TLE epoch observation values (Epoch: 2026-06-20T06:23:26.224Z)
Latitude
-0.00004°
Longitude
164.17964°
Altitude
540.602 km
Speed
7.593 km/s
True Right ascension
11h 14m 05s
True Declination
0° 00' 00"
Sunlit
Object was in daylight at epoch
Visualization orbit readout
Latitude
Unknown
Longitude
Unknown
Altitude
Unknown
Speed
Unknown
Apparent Right ascension
Unknown
Apparent Declination
Unknown
Sunlit
N/A
Visualization observer readout
Local Sidereal Time
21:30:03
Azimuth
Unknown
Elevation
Unknown
Doppler factor
Unknown
Orbital elements
Apogee altitude
540.921 km
Perigee altitude
539.111 km
Semi-major axis
6,918.153 km
Eccentricity
0.00013
Inclination
53.1599°
RAAN
168.5223°
Arg. of periapsis
86.8719°
True anomaly
273.22724°
Mean anomaly
273.2422°
Eccentric anomaly
273.23472°
Mean motion
3.77188 °/min
Orbital period
95.44 mins
BSTAR
0.000052303
Loading maneuver chart data...
Computing Atmospheric mass density...
Loading historical data...
Loading historical data...
Loading historical data...
Loading historical data...
Loading historical data...
Loading historical data...
Loading historical data...

Documentation

Showing up to 5 results
|